Вернуться в каталог

DELTA 1 DEB

АктивенSSO
NORAD 42568·DEBRIS·🇺🇸 United States

Запущен Jul 23, 1972 с Vandenberg Space Force Base

Loading…

Ближайшие Пролёты (ближайшие 24 часа)

TLE

СвежийSource: Space-Track

Эпоха: Sep 11, 2026, 20:30 UTC

1 42568U 72058KB  26254.85438703  .00000285  00000-0  15405-3 0  9997
2 42568  98.9317 287.4234 0026862 351.2218   8.8484 14.20354724 92049

Отслеживайте DELTA 1 DEB в реальном времени с AllMySat

Download on the App Store